Location: ???????
(55.2903°N, 39.1554°E)
Time: 17:01:18
(UTC+00:00)

ATLAS 3B R/B - Pass Details

Date: 14 April 2024
Orbit: 936 x 1258 km, 63.8° (Epoch: 15 May)

Event Time Altitude Azimuth Distance (km) Brightness Sun altitude
Rises 00:21:28 0° 302° (WNW) 4,077 5.6 -15.4°
Reaches altitude 10° 00:24:13 10° 306° (NW) 3,150 5.1 -15.1°
Maximum altitude 00:31:48 61° 26° (NNE) 1,400 3.6 -14.3°
Drops below altitude 10° 00:39:37 10° 107° (ESE) 3,242 5.7 -13.4°
Sets 00:42:29 0° 111° (ESE) 4,203 6.2 -13.1°
